Regional Weather Roundup
Issued by NWS Northern Indiana

Home | Current Version | Previous Version | Text Only | Print | Product List | Glossary Off
Versions: 1 2 3 4 5 6 7 8 9 10 11 12 13 14 15 16 17 18 19 20 21 22 23 24 25 26 27 28 29 30 31 32 33 34 35 36 37 38 39 40 41 42 43 44 45 46 47 48 49 50

000
ASUS43 KIWX 270500
RWRIWX

KIWX WEATHER ROUNDUP
NATIONAL WEATHER SERVICE NORTHERN INDIANA
100 AM EDT WED AUG 27 2014

NOTE: "FAIR" INDICATES FEW OR NO CLOUDS BELOW 12,000 FEET WITH NO
SIGNIFICANT WEATHER AND/OR OBSTRUCTIONS TO VISIBILITY.

* THESE STATIONS ARE NOT UNDER NWS QUALITY CONTROL. THEY ALSO MAY NOT
  REPORT WEATHER SUCH AS PRECIPITATION OR FOG.

INZ001>027-270600-
NORTHERN INDIANA

CITY           SKY/WX    TMP DP  RH WIND       PRES   REMARKS
VALPARAISO     CLOUDY    69  67  93 CALM      30.12R FOG
KNOX*          CLOUDY    68  66  93 N3        30.10S VSB<1/4
SOUTH BEND     PTCLDY    67  64  90 N5        30.12R FOG
GOSHEN         CLOUDY    72  69  90 W3        30.11R FOG
MONTICELLO*    CLOUDY    70  69  98 CALM      30.09S
WARSAW*        MOCLDY    66  66 100 CALM      30.11R FOG
ANGOLA*        CLOUDY    70  63  78 CALM      30.11R
FORT WAYNE     PTCLDY    69  67  93 S3        30.10R

$$
INZ028>050-270600-
CENTRAL INDIANA

CITY           SKY/WX    TMP DP  RH WIND       PRES   REMARKS
LAFAYETTE      CLOUDY    69  68  96 CALM      30.08F
KOKOMO*        CLOUDY    68  66  94 S5        30.10S
MUNCIE*        MOCLDY    71  68  90 CALM      30.11S
INDIANAPOLIS   CLOUDY    73  69  87 NW3       30.09R

$$
MIZ043>046-050>051-056>058-064>065-071>073-077>080-270600-
SOUTHWEST LOWER MICHIGAN

CITY           SKY/WX    TMP DP  RH WIND       PRES   REMARKS
BATTLE CREEK   CLEAR     67  63  87 NW3       30.13R
BENTON HARBOR  CLEAR     62  61  96 CALM      30.12R
COLDWATER*     CLOUDY    72  70  95 N5        30.11S
HILLSDALE*     PTCLDY    71  71 100 NW3       30.12R FOG
HOLLAND        CLEAR     63  60  90 CALM      30.12S
GRAND RAPIDS   CLEAR     64  61  90 CALM      30.12R
KALAMAZOO      CLEAR     65  63  93 CALM      30.12R
STURGIS*       CLOUDY    70  70 100 N5        30.11R FOG
THREE RIVERS*  FAIR      69  67  93 NW3       30.12R

$$
OHZ001>008-015>018-024>025-270600-
NORTHWEST OHIO

CITY           SKY/WX    TMP DP  RH WIND       PRES   REMARKS
DEFIANCE       CLEAR     69  67  93 CALM      30.09R FOG
FINDLAY        CLEAR     73  70  90 W6        30.08R
TOLEDO EXPRESS CLEAR     72  69  90 NW6       30.07S
TOLEDO METCALF CLEAR     72  68  87 W6        30.08R
LIMA           CLEAR     72  68  87 CALM      30.09F

$$
&&



USA.gov is the U.S. government's official web portal to all federal, state and local government web resources and services.